EDW22 LSZH-LPMA

Flight info

Callsign EDW22
Flight time N/A
Altitude 33000
Route VEBIT T50 ROTOS Z669 ULMES DCT VADAR DCT NINTU/N0449F350 DCT MEBAK DCT REPSI DCT LERGA DCT MINSO DCT NARAK DCT AGN DCT PIPOR DCT PPN DCT MIRPO DCT DGO DCT NEA DCT ARDID DCT FTM DCT NASAS/N0450F370 DCT LIDRO
Aircraft A320/M-SDE3FGHIRWY/LB1

Departure

Time 2026-05-04 05:38
Airport Zürich Airport (LSZH)

Arrival

Time N/A
Airport Cristiano Ronaldo International Airport (LPMA)
Time Latitude Longitude Altitude Speed Heading
2026-05-04 05:15 47.45413 8.56002 1397 ft 0 kts 186°
2026-05-04 05:29 47.45437 8.56005 1402 ft 4 kts 181°
2026-05-04 05:29 47.45464 8.56003 1403 ft 4 kts 168°
2026-05-04 05:31 47.45492 8.55976 1407 ft 0 kts 96°
2026-05-04 05:33 47.45490 8.55995 1399 ft 4 kts 96°
2026-05-04 05:33 47.45486 8.56057 1397 ft 8 kts 96°
2026-05-04 05:33 47.45478 8.56160 1397 ft 12 kts 96°
2026-05-04 05:34 47.45514 8.56287 1399 ft 16 kts 50°
2026-05-04 05:34 47.45592 8.56426 1402 ft 19 kts 58°
2026-05-04 05:34 47.45584 8.56608 1399 ft 19 kts 95°
2026-05-04 05:34 47.45573 8.56795 1397 ft 14 kts 95°
2026-05-04 05:35 47.45565 8.56918 1397 ft 11 kts 95°
2026-05-04 05:35 47.45584 8.57004 1404 ft 6 kts 37°
2026-05-04 05:35 47.45621 8.57024 1398 ft 6 kts
2026-05-04 05:35 47.45655 8.57011 1401 ft 5 kts 320°
2026-05-04 05:36 47.45662 8.56982 1399 ft 1 kts 284°
2026-05-04 05:36 47.45663 8.56979 1399 ft 0 kts 281°
2026-05-04 05:37 47.45668 8.56937 1398 ft 23 kts 279°
2026-05-04 05:37 47.45712 8.56311 1399 ft 96 kts 276°
2026-05-04 05:37 47.45804 8.55035 1398 ft 151 kts 276°
2026-05-04 05:38 47.46059 8.51370 1954 ft 193 kts 277°
2026-05-04 05:38 47.46250 8.49366 2538 ft 200 kts 279°
2026-05-04 05:38 47.46489 8.47333 3156 ft 204 kts 279°
2026-05-04 05:38 47.46329 8.45276 3669 ft 204 kts 249°
2026-05-04 05:39 47.45707 8.43359 4035 ft 216 kts 243°
2026-05-04 05:39 47.43521 8.39750 4546 ft 262 kts 217°
2026-05-04 05:39 47.42023 8.38077 5053 ft 275 kts 217°
2026-05-04 05:40 47.39057 8.34389 6520 ft 284 kts 231°
2026-05-04 05:40 47.37997 8.31923 7238 ft 286 kts 243°
2026-05-04 05:40 47.37101 8.29338 8011 ft 287 kts 241°
2026-05-04 05:41 47.36179 8.26723 8795 ft 288 kts 240°
2026-05-04 05:41 47.35245 8.24106 9573 ft 289 kts 240°
2026-05-04 05:41 47.34305 8.21478 10245 ft 293 kts 239°
2026-05-04 05:41 47.33308 8.18704 10386 ft 316 kts 239°
2026-05-04 05:42 47.32244 8.15740 10556 ft 336 kts 239°
2026-05-04 05:42 47.31141 8.12655 11079 ft 343 kts 240°
2026-05-04 05:42 47.30030 8.09525 11729 ft 346 kts 240°
2026-05-04 05:42 47.28916 8.06378 12414 ft 347 kts 240°
2026-05-04 05:43 47.27797 8.03216 13102 ft 349 kts 239°
2026-05-04 05:43 47.26703 8.00021 13783 ft 351 kts 244°
2026-05-04 05:43 47.25769 7.96684 14379 ft 353 kts 245°
2026-05-04 05:45 47.18990 7.72902 18227 ft 367 kts 238°
2026-05-04 05:45 47.17544 7.69806 18697 ft 368 kts 230°
2026-05-04 05:47 47.06122 7.48718 21862 ft 386 kts 230°
2026-05-04 05:47 47.04449 7.45626 22274 ft 388 kts 230°
2026-05-04 05:47 47.02760 7.42507 22679 ft 391 kts 231°
2026-05-04 05:48 47.01060 7.39378 23086 ft 394 kts 230°
2026-05-04 05:48 46.99344 7.36238 23498 ft 396 kts 230°
2026-05-04 05:48 46.97615 7.33088 23843 ft 398 kts 230°
2026-05-04 05:48 46.95876 7.29924 24186 ft 400 kts 230°
2026-05-04 05:49 46.94132 7.26748 24526 ft 401 kts 230°
2026-05-04 05:49 46.92385 7.23571 24898 ft 401 kts 230°
2026-05-04 05:49 46.90658 7.20432 25236 ft 401 kts 230°
2026-05-04 05:49 46.88905 7.17245 25566 ft 402 kts 230°
2026-05-04 05:51 46.76501 6.94749 27678 ft 410 kts 230°
2026-05-04 05:51 46.74704 6.91510 27972 ft 411 kts 230°
2026-05-04 05:52 46.72899 6.88258 28222 ft 413 kts 230°
2026-05-04 05:52 46.71089 6.85000 28464 ft 414 kts 230°
2026-05-04 05:52 46.69270 6.81728 28689 ft 416 kts 230°
2026-05-04 05:52 46.67444 6.78453 28942 ft 417 kts 230°
2026-05-04 05:53 46.65653 6.75123 29179 ft 419 kts 234°
2026-05-04 05:54 46.55034 6.49759 30889 ft 417 kts 237°
2026-05-04 05:55 46.53525 6.46165 31178 ft 416 kts 237°
2026-05-04 05:55 46.52016 6.42579 31441 ft 414 kts 237°
2026-05-04 05:55 46.50517 6.39018 31698 ft 413 kts 237°
2026-05-04 05:55 46.49019 6.35465 31955 ft 412 kts 237°
2026-05-04 05:56 46.47526 6.31927 32213 ft 410 kts 237°
2026-05-04 05:56 46.46035 6.28398 32483 ft 409 kts 237°
2026-05-04 05:56 46.44552 6.24887 32740 ft 408 kts 236°
2026-05-04 05:56 46.43073 6.21391 33004 ft 406 kts 236°
2026-05-04 05:57 46.41592 6.17903 33265 ft 405 kts 236°
2026-05-04 05:57 46.40117 6.14434 33522 ft 404 kts 236°
2026-05-04 05:57 46.38646 6.10974 33758 ft 403 kts 236°
2026-05-04 05:57 46.37175 6.07520 33998 ft 402 kts 236°
2026-05-04 05:58 46.35712 6.04084 34206 ft 401 kts 236°
2026-05-04 05:58 46.34248 6.00651 34418 ft 401 kts 236°
2026-05-04 05:58 46.32778 5.97213 34536 ft 402 kts 236°
2026-05-04 05:58 46.31300 5.93766 34682 ft 403 kts 236°
2026-05-04 05:59 46.29824 5.90321 34806 ft 404 kts 236°
2026-05-04 05:59 46.28343 5.86858 34955 ft 404 kts 236°
2026-05-04 05:59 46.26865 5.83408 35103 ft 404 kts 236°
2026-05-04 05:59 46.25383 5.79959 35241 ft 404 kts 236°
2026-05-04 06:00 46.23897 5.76507 35392 ft 404 kts 236°
2026-05-04 06:00 46.22432 5.73100 35515 ft 404 kts 236°
2026-05-04 06:00 46.20947 5.69653 35654 ft 404 kts 236°
2026-05-04 06:00 46.19462 5.66218 35778 ft 404 kts 236°
2026-05-04 06:01 46.17965 5.62767 35904 ft 404 kts 236°
2026-05-04 06:01 46.16472 5.59330 36033 ft 404 kts 236°
2026-05-04 06:03 46.05478 5.36042 36980 ft 399 kts 234°
2026-05-04 06:03 46.03893 5.32757 37020 ft 400 kts 234°
2026-05-04 06:05 45.89444 5.02888 37031 ft 405 kts 234°
2026-05-04 06:06 45.86231 4.96313 37023 ft 405 kts 233°
2026-05-04 06:06 45.82995 4.89707 37030 ft 404 kts 233°
2026-05-04 06:07 45.79763 4.83109 37030 ft 404 kts 233°
2026-05-04 06:07 45.76521 4.76501 37032 ft 405 kts 233°
2026-05-04 06:08 45.73279 4.69913 37055 ft 405 kts 233°
2026-05-04 06:08 45.70028 4.63316 37041 ft 405 kts 233°
2026-05-04 06:09 45.66799 4.56781 37036 ft 404 kts 233°
2026-05-04 06:11 45.53793 4.30631 37051 ft 403 kts 233°
2026-05-04 06:13 45.40762 4.04662 37043 ft 402 kts 233°
2026-05-04 06:14 45.29314 3.82059 37038 ft 402 kts 232°
2026-05-04 06:15 45.26591 3.76714 37035 ft 402 kts 232°
2026-05-04 06:15 45.22820 3.69203 37033 ft 402 kts 233°
2026-05-04 06:16 45.20155 3.63739 37033 ft 402 kts 233°
2026-05-04 06:16 45.16965 3.57233 37034 ft 402 kts 233°
2026-05-04 06:17 45.13759 3.50745 37008 ft 402 kts 233°
2026-05-04 06:17 45.10572 3.44314 37010 ft 402 kts 233°
2026-05-04 06:18 45.07355 3.37847 37015 ft 401 kts 233°
2026-05-04 06:20 44.94465 3.12033 36993 ft 402 kts 233°
2026-05-04 06:21 44.86388 2.95996 37010 ft 402 kts 233°
2026-05-04 06:22 44.83180 2.89522 37003 ft 403 kts 234°
2026-05-04 06:25 44.61801 2.43171 37008 ft 403 kts 234°
2026-05-04 06:26 44.58745 2.36626 36990 ft 404 kts 235°
2026-05-04 06:26 44.55664 2.30043 36997 ft 403 kts 234°
2026-05-04 06:27 44.47926 2.13617 37003 ft 403 kts 234°
2026-05-04 06:28 44.44848 2.07103 36994 ft 404 kts 234°
2026-05-04 06:28 44.41746 2.00551 36986 ft 404 kts 234°
2026-05-04 06:29 44.38641 1.94008 36976 ft 404 kts 234°
2026-05-04 06:29 44.35531 1.87468 36997 ft 403 kts 234°
2026-05-04 06:30 44.32416 1.80945 36990 ft 403 kts 234°
2026-05-04 06:30 44.29305 1.74421 36987 ft 403 kts 234°
2026-05-04 06:31 44.26253 1.67857 36983 ft 403 kts 236°
2026-05-04 06:31 44.23250 1.61249 36981 ft 403 kts 236°
2026-05-04 06:33 44.11141 1.35000 36981 ft 403 kts 235°
2026-05-04 06:34 44.08085 1.28435 36977 ft 403 kts 235°
2026-05-04 06:34 44.05046 1.21922 36973 ft 403 kts 235°
2026-05-04 06:36 43.92790 0.95756 36973 ft 404 kts 235°
2026-05-04 06:37 43.89707 0.89239 36974 ft 404 kts 235°
2026-05-04 06:37 43.86712 0.82705 36971 ft 405 kts 237°
2026-05-04 06:38 43.83866 0.75969 36997 ft 405 kts 238°
2026-05-04 06:40 43.72335 0.49140 36969 ft 406 kts 237°
2026-05-04 06:40 43.69428 0.42451 36967 ft 406 kts 237°
2026-05-04 06:41 43.66516 0.35758 37004 ft 406 kts 237°
2026-05-04 06:41 43.63594 0.29074 36993 ft 406 kts 237°
2026-05-04 06:42 43.60667 0.22404 36974 ft 406 kts 237°
2026-05-04 06:44 43.48956 -0.04181 37008 ft 406 kts 237°
2026-05-04 06:44 43.46014 -0.10822 37002 ft 406 kts 237°
2026-05-04 06:45 43.43067 -0.17469 36987 ft 405 kts 237°
2026-05-04 06:45 43.40147 -0.24037 36985 ft 405 kts 237°
2026-05-04 06:46 43.37203 -0.30635 36987 ft 404 kts 237°
2026-05-04 06:46 43.34259 -0.37227 36986 ft 404 kts 237°
2026-05-04 06:48 43.22446 -0.63507 36973 ft 404 kts 237°
2026-05-04 06:50 43.10589 -0.89647 37002 ft 404 kts 237°
2026-05-04 06:51 43.07608 -0.96176 36998 ft 404 kts 237°
2026-05-04 06:51 43.04650 -1.02658 36981 ft 405 kts 237°
2026-05-04 06:52 43.01667 -1.09178 36980 ft 404 kts 237°
2026-05-04 06:52 42.98677 -1.15679 37017 ft 403 kts 237°
2026-05-04 06:53 42.95690 -1.22164 37005 ft 403 kts 237°
2026-05-04 06:53 42.92702 -1.28641 36999 ft 403 kts 237°
2026-05-04 06:54 42.89717 -1.35109 36991 ft 403 kts 237°
2026-05-04 06:54 42.86723 -1.41566 36989 ft 403 kts 237°
2026-05-04 06:55 42.83727 -1.48019 36987 ft 403 kts 237°
2026-05-04 06:55 42.80726 -1.54466 37013 ft 403 kts 237°
2026-05-04 06:57 42.70808 -1.81663 36982 ft 407 kts 251°
2026-05-04 06:58 42.69144 -1.89021 36989 ft 407 kts 251°
2026-05-04 06:58 42.67481 -1.96382 37003 ft 408 kts 251°
2026-05-04 06:59 42.65809 -2.03753 36991 ft 408 kts 250°
2026-05-04 06:59 42.64125 -2.11117 36988 ft 408 kts 250°
2026-05-04 07:01 42.57089 -2.40369 36994 ft 408 kts 249°
2026-05-04 07:02 42.55306 -2.47677 36994 ft 407 kts 249°
2026-05-04 07:02 42.53528 -2.54920 36990 ft 407 kts 249°
2026-05-04 07:03 42.51738 -2.62191 36987 ft 407 kts 249°
2026-05-04 07:03 42.49943 -2.69460 36995 ft 406 kts 249°
2026-05-04 07:04 42.48146 -2.76727 36983 ft 407 kts 249°
2026-05-04 07:04 42.46344 -2.83998 36985 ft 407 kts 249°
2026-05-04 07:05 42.44295 -2.91126 36980 ft 406 kts 243°
2026-05-04 07:05 42.42327 -2.96905 36974 ft 406 kts 244°
2026-05-04 07:06 42.38784 -3.07328 36983 ft 407 kts 244°
2026-05-04 07:07 42.36408 -3.14280 36975 ft 407 kts 243°
2026-05-04 07:09 42.26893 -3.41958 36998 ft 406 kts 243°
2026-05-04 07:09 42.24500 -3.48861 37003 ft 407 kts 243°
2026-05-04 07:10 42.22100 -3.55778 36990 ft 408 kts 243°
2026-05-04 07:12 42.12416 -3.83533 36994 ft 409 kts 243°
2026-05-04 07:12 42.09989 -3.90433 36990 ft 410 kts 243°
2026-05-04 07:13 42.07549 -3.97362 36989 ft 410 kts 243°
2026-05-04 07:13 42.05106 -4.04293 36987 ft 410 kts 243°
2026-05-04 07:14 41.98792 -4.21491 36988 ft 410 kts 242°
2026-05-04 07:15 41.96169 -4.28294 36991 ft 410 kts 242°
2026-05-04 07:15 41.93558 -4.35094 36989 ft 409 kts 242°
2026-05-04 07:16 41.90974 -4.41850 36989 ft 410 kts 242°
2026-05-04 07:16 41.88375 -4.48656 36990 ft 409 kts 242°
2026-05-04 07:17 41.85775 -4.55440 36995 ft 409 kts 242°
2026-05-04 07:17 41.83168 -4.62217 36998 ft 409 kts 242°
2026-05-04 07:18 41.80551 -4.68994 36998 ft 409 kts 242°
2026-05-04 07:18 41.77937 -4.75762 36998 ft 409 kts 242°
2026-05-04 07:19 41.75308 -4.82543 37000 ft 410 kts 242°
2026-05-04 07:19 41.72691 -4.89266 37000 ft 410 kts 242°
2026-05-04 07:20 41.70055 -4.96035 37017 ft 410 kts 242°
2026-05-04 07:20 41.67409 -5.02814 36999 ft 411 kts 242°
2026-05-04 07:22 41.56775 -5.29888 36998 ft 411 kts 242°
2026-05-04 07:23 41.54124 -5.36579 37017 ft 411 kts 242°
2026-05-04 07:23 41.51454 -5.43330 37007 ft 411 kts 242°
2026-05-04 07:24 41.48777 -5.50094 37002 ft 412 kts 242°
2026-05-04 07:24 41.46096 -5.56846 37005 ft 412 kts 242°
2026-05-04 07:26 41.35332 -5.83769 37016 ft 413 kts 242°
2026-05-04 07:27 41.32622 -5.90502 37016 ft 413 kts 242°
2026-05-04 07:27 41.29902 -5.97235 37022 ft 413 kts 242°
2026-05-04 07:28 41.27179 -6.03969 37025 ft 413 kts 242°
2026-05-04 07:28 41.24455 -6.10698 37039 ft 413 kts 242°
2026-05-04 07:29 41.21726 -6.17429 37032 ft 414 kts 242°
2026-05-04 07:29 41.18981 -6.24160 37038 ft 414 kts 242°
2026-05-04 07:30 41.15853 -6.30500 37028 ft 415 kts 230°
2026-05-04 07:30 41.12052 -6.36262 37040 ft 414 kts 230°
2026-05-04 07:31 41.08249 -6.42008 37052 ft 414 kts 230°
2026-05-04 07:33 40.93000 -6.64998 37022 ft 416 kts 230°
2026-05-04 07:33 40.89202 -6.70699 37054 ft 415 kts 230°
2026-05-04 07:34 40.85378 -6.76432 37069 ft 415 kts 230°
2026-05-04 07:34 40.81563 -6.82153 37076 ft 415 kts 230°
2026-05-04 07:35 40.77750 -6.87861 37078 ft 415 kts 231°
2026-05-04 07:35 40.73914 -6.93561 37061 ft 416 kts 231°
2026-05-04 07:36 40.70076 -6.99262 37056 ft 416 kts 231°
2026-05-04 07:38 40.54734 -7.21968 37077 ft 415 kts 231°
2026-05-04 07:38 40.50884 -7.27641 37082 ft 415 kts 231°
2026-05-04 07:39 40.47033 -7.33297 37075 ft 415 kts 231°
2026-05-04 07:39 40.43181 -7.38952 37075 ft 416 kts 231°
2026-05-04 07:40 40.39327 -7.44597 37075 ft 415 kts 231°
2026-05-04 07:40 40.35469 -7.50234 37075 ft 415 kts 231°
2026-05-04 07:41 40.31611 -7.55870 37082 ft 415 kts 231°
2026-05-04 07:41 40.27742 -7.61496 37084 ft 416 kts 231°
2026-05-04 07:42 40.23892 -7.67093 37081 ft 416 kts 231°
2026-05-04 07:42 40.20017 -7.72734 37060 ft 417 kts 231°
2026-05-04 07:43 40.16127 -7.78373 37064 ft 417 kts 231°
2026-05-04 07:43 40.12238 -7.83997 37068 ft 417 kts 231°
2026-05-04 07:44 40.08343 -7.89615 37077 ft 417 kts 231°
2026-05-04 07:44 40.04444 -7.95221 37083 ft 417 kts 231°
2026-05-04 07:45 40.00542 -8.00837 37079 ft 417 kts 231°
2026-05-04 07:45 39.96643 -8.06436 37058 ft 417 kts 231°
2026-05-04 07:46 39.92739 -8.12028 37084 ft 416 kts 231°
2026-05-04 07:46 39.88873 -8.17566 37091 ft 416 kts 231°
2026-05-04 07:47 39.84974 -8.23130 37100 ft 415 kts 231°
2026-05-04 07:49 39.69381 -8.45295 37090 ft 415 kts 231°
2026-05-04 07:49 39.65479 -8.50815 37107 ft 415 kts 231°
2026-05-04 07:50 39.61629 -8.56338 37105 ft 414 kts 231°
2026-05-04 07:50 39.57777 -8.61903 37108 ft 414 kts 231°
2026-05-04 07:51 39.53922 -8.67451 37111 ft 414 kts 231°
2026-05-04 07:51 39.50053 -8.72999 37104 ft 414 kts 231°
2026-05-04 07:52 39.46186 -8.78531 37088 ft 414 kts 231°
2026-05-04 07:52 39.42339 -8.84017 37110 ft 414 kts 231°
2026-05-04 07:54 39.26882 -9.05984 37120 ft 412 kts 231°
2026-05-04 07:55 39.23011 -9.11457 37110 ft 412 kts 232°
2026-05-04 07:55 39.19141 -9.16917 37102 ft 412 kts 232°
2026-05-04 07:56 39.15308 -9.22322 37118 ft 411 kts 232°
2026-05-04 07:56 39.11450 -9.27745 37121 ft 410 kts 232°
2026-05-04 07:57 39.07595 -9.33161 37117 ft 410 kts 232°
2026-05-04 07:57 39.04397 -9.37654 37131 ft 409 kts 232°
2026-05-04 07:58 39.00541 -9.43055 37128 ft 409 kts 232°
2026-05-04 07:58 38.96693 -9.48441 37119 ft 409 kts 232°
2026-05-04 07:59 38.92839 -9.53825 37106 ft 409 kts 232°
2026-05-04 07:59 38.88983 -9.59200 37120 ft 409 kts 232°
2026-05-04 08:00 38.85132 -9.64558 37127 ft 409 kts 232°
2026-05-04 08:02 38.69699 -9.85930 37091 ft 408 kts 232°
2026-05-04 08:02 38.65828 -9.91266 37104 ft 409 kts 232°
2026-05-04 08:03 38.61977 -9.96561 37118 ft 409 kts 232°
2026-05-04 08:03 38.58092 -10.01893 37124 ft 409 kts 232°
2026-05-04 08:04 38.54206 -10.07223 37129 ft 410 kts 232°
2026-05-04 08:04 38.50320 -10.12553 37132 ft 410 kts 232°
2026-05-04 08:05 38.46427 -10.17873 37137 ft 410 kts 232°
2026-05-04 08:05 38.42560 -10.23157 37094 ft 410 kts 232°
2026-05-04 08:06 38.38662 -10.28475 37115 ft 410 kts 231°
2026-05-04 08:06 38.34760 -10.33783 37126 ft 411 kts 231°
2026-05-04 08:08 38.19098 -10.54983 37147 ft 411 kts 231°
2026-05-04 08:11 38.01489 -10.78638 37152 ft 409 kts 231°
2026-05-04 08:11 37.95615 -10.86507 37154 ft 409 kts 231°
2026-05-04 08:12 37.91695 -10.91745 37156 ft 409 kts 231°
2026-05-04 08:12 37.87775 -10.96976 37151 ft 409 kts 231°
2026-05-04 08:13 37.83851 -11.02204 37148 ft 410 kts 231°
2026-05-04 08:13 37.79920 -11.07434 37148 ft 410 kts 231°
2026-05-04 08:14 37.75974 -11.12663 37152 ft 411 kts 231°
2026-05-04 08:16 37.60192 -11.33502 37148 ft 410 kts 231°
2026-05-04 08:16 37.56252 -11.38699 37158 ft 410 kts 231°
2026-05-04 08:17 37.52306 -11.43879 37162 ft 409 kts 231°
2026-05-04 08:17 37.48362 -11.49044 37162 ft 409 kts 231°
2026-05-04 08:19 37.32609 -11.69633 37163 ft 408 kts 231°
2026-05-04 08:20 37.28661 -11.74757 37169 ft 408 kts 231°
2026-05-04 08:20 37.24719 -11.79874 37174 ft 407 kts 231°
2026-05-04 08:21 37.20805 -11.84954 37175 ft 407 kts 231°
2026-05-04 08:21 37.16859 -11.90057 37177 ft 407 kts 231°
2026-05-04 08:22 37.12919 -11.95152 37178 ft 407 kts 231°
2026-05-04 08:24 36.97147 -12.15466 37179 ft 406 kts 231°
2026-05-04 08:24 36.93231 -12.20488 37179 ft 406 kts 231°
2026-05-04 08:25 36.89286 -12.25536 37179 ft 405 kts 231°
2026-05-04 08:25 36.85350 -12.30573 37176 ft 405 kts 231°
2026-05-04 08:27 36.69607 -12.50627 37181 ft 404 kts 231°
2026-05-04 08:28 36.65685 -12.55590 37181 ft 404 kts 231°
2026-05-04 08:28 36.61744 -12.60585 37182 ft 404 kts 231°
2026-05-04 08:29 36.57801 -12.65569 37179 ft 404 kts 231°
2026-05-04 08:31 36.42054 -12.85422 37186 ft 403 kts 231°
2026-05-04 08:33 36.26044 -13.05017 37170 ft 405 kts 229°
2026-05-04 08:35 36.09725 -13.24001 37209 ft 402 kts 229°
2026-05-04 08:35 36.05652 -13.28732 37206 ft 401 kts 229°
2026-05-04 08:37 35.91440 -13.45199 37199 ft 400 kts 229°
2026-05-04 08:38 35.87377 -13.49887 37176 ft 400 kts 229°
2026-05-04 08:38 35.83306 -13.54585 37184 ft 400 kts 229°
2026-05-04 08:40 35.67042 -13.73276 37184 ft 401 kts 229°
2026-05-04 08:41 35.62959 -13.77949 37191 ft 401 kts 229°
2026-05-04 08:41 35.58876 -13.82610 37194 ft 401 kts 229°
2026-05-04 08:42 35.54792 -13.87278 37177 ft 400 kts 229°
2026-05-04 08:42 35.50711 -13.91934 37179 ft 401 kts 229°
2026-05-04 08:43 35.46622 -13.96589 37180 ft 401 kts 229°
2026-05-04 08:43 35.42554 -14.01216 37168 ft 401 kts 229°
2026-05-04 08:44 35.38452 -14.05870 37170 ft 402 kts 228°
2026-05-04 08:46 35.22038 -14.24429 37190 ft 402 kts 228°
2026-05-04 08:46 35.17918 -14.29068 37189 ft 403 kts 228°
2026-05-04 08:47 35.13800 -14.33706 37190 ft 402 kts 228°
2026-05-04 08:47 35.09679 -14.38341 37198 ft 403 kts 228°
2026-05-04 08:48 35.05552 -14.42961 37196 ft 403 kts 228°
2026-05-04 08:48 35.01420 -14.47582 37196 ft 403 kts 228°
2026-05-04 08:49 34.97305 -14.52187 37193 ft 403 kts 227°
2026-05-04 08:50 34.83539 -14.67542 37163 ft 402 kts 227°
2026-05-04 08:51 34.79412 -14.72139 37175 ft 402 kts 227°
2026-05-04 08:51 34.75278 -14.76721 37181 ft 401 kts 227°
2026-05-04 08:52 34.71150 -14.81289 37181 ft 401 kts 227°
2026-05-04 08:52 34.67018 -14.85861 37183 ft 401 kts 227°
2026-05-04 08:54 34.50524 -15.04063 37171 ft 401 kts 227°
2026-05-04 08:55 34.46393 -15.08598 37182 ft 400 kts 227°
2026-05-04 08:55 34.42268 -15.13129 37176 ft 400 kts 227°
2026-05-04 09:01 33.98986 -15.60307 37165 ft 400 kts 226°
2026-05-04 09:01 33.94833 -15.64792 37137 ft 401 kts 226°
2026-05-04 09:02 33.90665 -15.69282 37132 ft 402 kts 225°
2026-05-04 09:02 33.86486 -15.73785 37135 ft 403 kts 226°
2026-05-04 09:03 33.82336 -15.78265 37141 ft 404 kts 226°
2026-05-04 09:03 33.78146 -15.82770 37137 ft 404 kts 225°
2026-05-04 09:04 33.73943 -15.87275 37136 ft 404 kts 225°
2026-05-04 09:04 33.69746 -15.91765 37145 ft 404 kts 225°
2026-05-04 09:05 33.65376 -15.96036 37121 ft 408 kts 217°
2026-05-04 09:05 33.60584 -15.99722 37116 ft 409 kts 217°
2026-05-04 09:06 33.55779 -16.03394 37120 ft 410 kts 217°
2026-05-04 09:08 33.36534 -16.18089 37111 ft 411 kts 216°
2026-05-04 09:08 33.31703 -16.21772 37110 ft 412 kts 216°
2026-05-04 09:09 33.26868 -16.25451 37110 ft 412 kts 216°
2026-05-04 09:09 33.22031 -16.29130 37116 ft 413 kts 216°
2026-05-04 09:10 33.17221 -16.32782 37114 ft 412 kts 216°
2026-05-04 09:10 33.12371 -16.36449 37114 ft 412 kts 216°
2026-05-04 09:11 33.07513 -16.40117 37110 ft 412 kts 216°
2026-05-04 09:11 33.02696 -16.43758 37118 ft 412 kts 216°
2026-05-04 09:12 32.97857 -16.47416 37127 ft 412 kts 216°
2026-05-04 09:14 32.79936 -16.63821 37113 ft 398 kts 205°
2026-05-04 09:14 32.74830 -16.65926 37111 ft 387 kts 204°
2026-05-04 09:15 32.69742 -16.67963 37111 ft 386 kts 204°
2026-05-04 09:15 32.64661 -16.70013 37116 ft 385 kts 206°
2026-05-04 09:15 32.62372 -16.71524 37109 ft 371 kts 227°